• In Deutschland
  • Länderverzeichnis
  • Für 7 Tage
  • Wassertemperatur
  • Satellitenkarten
  • Wetterkarte
  • Widgets
  • user-avatar
    Anmelden

    Stündliche Wetter Lubango

    Heute, 24 August, Donnerstag

    Zeit Temperatur Niederschläge Wind Luftdruck Luftfeuchtigkeit
    00:00 +11°C° 0 mm 0 m/S 609 mmHg 78%
    01:00 +11°C° 0 mm 0 m/S 608 mmHg 79%
    02:00 +11°C° 0 mm 0 m/S 608 mmHg 77%
    03:00 +11°C° 0 mm 0 m/S 608 mmHg 76%
    04:00 +10°C° 0 mm 0 m/S 608 mmHg 74%
    05:00 +11°C° 0 mm 0 m/S 608 mmHg 69%
    06:00 +12°C° 0 mm 1 m/S 608 mmHg 64%
    07:00 +13°C° 0 mm 1 m/S 609 mmHg 59%
    08:00 +18°C° 0 mm 1 m/S 610 mmHg 47%
    09:00 +21°C° 0 mm 1 m/S 612 mmHg 35%
    10:00 +25°C° 0 mm 2 m/S 613 mmHg 22%
    11:00 +26°C° 0 mm 2 m/S 613 mmHg 19%
    12:00 +28°C° 0 mm 2 m/S 613 mmHg 17%
    13:00 +30°C° 0 mm 2 m/S 613 mmHg 14%
    14:00 +29°C° 0 mm 3 m/S 613 mmHg 17%
    15:00 +28°C° 0 mm 3 m/S 612 mmHg 20%
    16:00 +27°C° 0 mm 4 m/S 612 mmHg 23%
    17:00 +24°C° 0 mm 3 m/S 611 mmHg 34%
    18:00 +20°C° 0 mm 3 m/S 610 mmHg 45%
    19:00 +17°C° 0 mm 2 m/S 609 mmHg 56%
    20:00 +16°C° 0 mm 2 m/S 609 mmHg 61%
    21:00 +15°C° 0 mm 1 m/S 609 mmHg 66%
    22:00 +14°C° 0 mm 1 m/S 609 mmHg 71%
    23:00 +13°C° 0 mm 1 m/S 609 mmHg 71%

    Morgen, 25 August, Freitag

    Zeit Temperatur Niederschläge Wind Luftdruck Luftfeuchtigkeit
    00:00 +13°C° 0 mm 1 m/S 609 mmHg 71%
    01:00 +13°C° 0 mm 1 m/S 609 mmHg 71%
    02:00 +13°C° 0 mm 1 m/S 608 mmHg 68%
    03:00 +12°C° 0 mm 1 m/S 608 mmHg 66%
    04:00 +12°C° 0 mm 1 m/S 608 mmHg 64%
    05:00 +13°C° 0 mm 1 m/S 608 mmHg 59%
    06:00 +13°C° 0 mm 1 m/S 608 mmHg 53%
    07:00 +14°C° 0 mm 1 m/S 609 mmHg 47%
    08:00 +18°C° 0 mm 2 m/S 611 mmHg 37%
    09:00 +21°C° 0 mm 2 m/S 612 mmHg 26%
    10:00 +26°C° 0 mm 3 m/S 614 mmHg 15%
    11:00 +28°C° 0 mm 3 m/S 614 mmHg 14%
    12:00 +29°C° 0 mm 3 m/S 613 mmHg 12%
    13:00 +31°C° 0 mm 2 m/S 613 mmHg 10%
    14:00 +30°C° 0 mm 3 m/S 612 mmHg 11%
    15:00 +30°C° 0 mm 3 m/S 612 mmHg 12%
    16:00 +29°C° 0 mm 3 m/S 611 mmHg 13%
    17:00 +26°C° 0 mm 3 m/S 610 mmHg 20%
    18:00 +21°C° 0 mm 2 m/S 609 mmHg 26%
    19:00 +18°C° 0 mm 2 m/S 608 mmHg 33%
    20:00 +17°C° 0 mm 2 m/S 609 mmHg 36%
    21:00 +16°C° 0 mm 1 m/S 609 mmHg 39%
    22:00 +15°C° 0 mm 1 m/S 609 mmHg 42%
    23:00 +15°C° 0 mm 1 m/S 609 mmHg 40%

    übermorgen, 26 August, Samstag

    Zeit Temperatur Niederschläge Wind Luftdruck Luftfeuchtigkeit
    00:00 +15°C° 0 mm 1 m/S 608 mmHg 39%
    01:00 +14°C° 0 mm 1 m/S 608 mmHg 38%
    02:00 +14°C° 0 mm 1 m/S 608 mmHg 37%
    03:00 +14°C° 0 mm 1 m/S 607 mmHg 36%
    04:00 +14°C° 0 mm 1 m/S 607 mmHg 35%
    05:00 +14°C° 0 mm 1 m/S 608 mmHg 33%
    06:00 +14°C° 0 mm 2 m/S 608 mmHg 31%
    07:00 +15°C° 0 mm 2 m/S 609 mmHg 29%
    08:00 +19°C° 0 mm 2 m/S 610 mmHg 23%
    09:00 +24°C° 0 mm 2 m/S 612 mmHg 16%
    10:00 +27°C° 0 mm 3 m/S 614 mmHg 9%
    11:00 +29°C° 0 mm 2 m/S 613 mmHg 9%
    12:00 +30°C° 0 mm 2 m/S 613 mmHg 8%
    13:00 +32°C° 0 mm 2 m/S 613 mmHg 7%
    14:00 +31°C° 0 mm 2 m/S 612 mmHg 8%
    15:00 +31°C° 0 mm 3 m/S 612 mmHg 9%
    16:00 +30°C° 0 mm 3 m/S 611 mmHg 10%
    17:00 +26°C° 0 mm 3 m/S 610 mmHg 16%
    18:00 +23°C° 0 mm 2 m/S 609 mmHg 22%
    19:00 +19°C° 0 mm 1 m/S 608 mmHg 29%
    20:00 +18°C° 0 mm 1 m/S 608 mmHg 32%
    21:00 +16°C° 0 mm 1 m/S 608 mmHg 35%
    22:00 +15°C° 0 mm 1 m/S 608 mmHg 39%
    23:00 +15°C° 0 mm 1 m/S 608 mmHg 38%

    27 August, Sonntag

    Zeit Temperatur Niederschläge Wind Luftdruck Luftfeuchtigkeit
    00:00 +14°C° 0 mm 1 m/S 607 mmHg 37%
    01:00 +14°C° 0 mm 1 m/S 607 mmHg 37%
    02:00 +13°C° 0 mm 1 m/S 607 mmHg 37%
    03:00 +13°C° 0 mm 1 m/S 606 mmHg 37%
    04:00 +13°C° 0 mm 1 m/S 606 mmHg 37%
    05:00 +13°C° 0 mm 1 m/S 607 mmHg 34%
    06:00 +14°C° 0 mm 1 m/S 608 mmHg 30%
    07:00 +15°C° 0 mm 1 m/S 609 mmHg 27%
    08:00 +19°C° 0 mm 2 m/S 610 mmHg 21%
    09:00 +24°C° 0 mm 2 m/S 612 mmHg 16%
    10:00 +27°C° 0 mm 3 m/S 613 mmHg 11%
    11:00 +29°C° 0 mm 3 m/S 613 mmHg 10%
    12:00 +30°C° 0 mm 3 m/S 613 mmHg 9%
    13:00 +32°C° 0 mm 2 m/S 612 mmHg 8%
    14:00 +31°C° 0 mm 3 m/S 612 mmHg 10%
    15:00 +30°C° 0 mm 3 m/S 611 mmHg 12%
    16:00 +29°C° 0 mm 3 m/S 610 mmHg 14%
    17:00 +25°C° 0 mm 3 m/S 610 mmHg 24%
    18:00 +21°C° 0 mm 2 m/S 609 mmHg 34%
    19:00 +17°C° 0 mm 2 m/S 608 mmHg 44%
    20:00 +16°C° 0 mm 1 m/S 608 mmHg 49%
    21:00 +15°C° 0 mm 1 m/S 608 mmHg 54%
    22:00 +14°C° 0 mm 1 m/S 608 mmHg 58%
    23:00 +14°C° 0 mm 1 m/S 608 mmHg 59%

    28 August, Montag

    Zeit Temperatur Niederschläge Wind Luftdruck Luftfeuchtigkeit
    00:00 +13°C° 0 mm 1 m/S 608 mmHg 60%
    01:00 +13°C° 0 mm 1 m/S 607 mmHg 61%
    02:00 +12°C° 0 mm 1 m/S 607 mmHg 61%
    03:00 +12°C° 0 mm 1 m/S 607 mmHg 61%
    04:00 +12°C° 0 mm 1 m/S 607 mmHg 61%
    05:00 +12°C° 0 mm 1 m/S 607 mmHg 57%
    06:00 +13°C° 0 mm 1 m/S 608 mmHg 53%
    07:00 +13°C° 0 mm 1 m/S 609 mmHg 49%
    08:00 +18°C° 0 mm 1 m/S 610 mmHg 40%
    09:00 +20°C° 0 mm 2 m/S 611 mmHg 31%
    10:00 +25°C° 0 mm 3 m/S 613 mmHg 23%
    11:00 +26°C° 0 mm 2 m/S 613 mmHg 21%
    12:00 +28°C° 0 mm 2 m/S 612 mmHg 19%
    13:00 +29°C° 0 mm 2 m/S 612 mmHg 17%
    14:00 +28°C° 0 mm 3 m/S 612 mmHg 19%
    15:00 +28°C° 0 mm 3 m/S 611 mmHg 21%
    16:00 +27°C° 0 mm 3 m/S 610 mmHg 23%
    17:00 +24°C° 0 mm 3 m/S 610 mmHg 33%
    18:00 +20°C° 0 mm 2 m/S 609 mmHg 44%
    19:00 +17°C° 0 mm 2 m/S 608 mmHg 55%
    20:00 +16°C° 0 mm 2 m/S 608 mmHg 59%
    21:00 +15°C° 0 mm 1 m/S 609 mmHg 64%
    22:00 +14°C° 0 mm 1 m/S 609 mmHg 69%
    23:00 +13°C° 0 mm 1 m/S 608 mmHg 71%

    29 August, Dienstag

    Zeit Temperatur Niederschläge Wind Luftdruck Luftfeuchtigkeit
    00:00 +13°C° 0 mm 1 m/S 608 mmHg 74%
    01:00 +12°C° 0 mm 1 m/S 608 mmHg 77%
    02:00 +12°C° 0 mm 1 m/S 608 mmHg 77%
    03:00 +12°C° 0 mm 1 m/S 608 mmHg 76%
    04:00 +12°C° 0 mm 1 m/S 607 mmHg 76%
    05:00 +11°C° 0 mm 0 m/S 608 mmHg 72%
    06:00 +12°C° 0 mm 0 m/S 609 mmHg 69%
    07:00 +12°C° 0 mm 0 m/S 609 mmHg 65%
    08:00 +16°C° 0 mm 1 m/S 610 mmHg 52%
    09:00 +20°C° 0 mm 2 m/S 612 mmHg 40%
    10:00 +24°C° 0 mm 2 m/S 613 mmHg 27%
    11:00 +25°C° 0 mm 2 m/S 613 mmHg 24%
    12:00 +27°C° 0 mm 2 m/S 612 mmHg 22%
    13:00 +28°C° 0 mm 2 m/S 612 mmHg 19%
    14:00 +28°C° 0 mm 2 m/S 612 mmHg 21%
    15:00 +27°C° 0 mm 3 m/S 611 mmHg 23%
    16:00 +27°C° 0 mm 3 m/S 610 mmHg 24%
    17:00 +24°C° 0 mm 3 m/S 610 mmHg 33%
    18:00 +20°C° 0 mm 2 m/S 609 mmHg 42%
    19:00 +17°C° 0 mm 2 m/S 608 mmHg 51%
    20:00 +16°C° 0 mm 2 m/S 608 mmHg 55%
    21:00 +15°C° 0 mm 1 m/S 608 mmHg 58%
    22:00 +14°C° 0 mm 1 m/S 608 mmHg 61%
    23:00 +14°C° 0 mm 1 m/S 608 mmHg 61%
    Mehr zeigen